[[{"header":{"parameterUnit":"m.s-1","parameterCategory":1,"la1":30.2991,"la2":30.254,"lo1":-89.0895,"lo2":-89.0444,"dy":0.0017,"dx":0.0017,"nx":28,"ny":28,"refTime":"2025-07-06T21:00:00:Z","depth":0,"parameterNumber":2,"parameterNumberName":"U-component_of_WINDS"},"data":[0,0,0,0,0,0,0,0,0,0,0,0,0,0,0,0,0,0,0,0,0,0,0,0,0,0,0,0,0,0,0,0,0,0,0,0,0,0,0,0,0,0,0,0,0,0,0,0,0,0,0,0,0,0,0,0,0,0,3.3029,3.3029,0,3.306,3.306,3.306,3.2963,3.296,3.2957,3.2954,3.2986,3.2989,3.2993,0,0,0,0,0,0,0,0,0,0,0,0,0,3.2885,3.2888,3.3029,3.3029,3.303,3.306,3.306,3.3061,3.2963,3.296,3.2956,3.2953,3.2985,3.2989,3.2993,0,0,0,0,0,0,0,0,0,0,0,0,0,3.2935,3.2889,3.3029,3.2985,3.2981,3.306,3.306,3.3061,3.2964,3.296,3.2955,3.2951,3.2983,3.2988,3.2994,3.3116,0,0,3.301,3.3013,0,0,0,0,0,0,0,0,3.2932,3.294,3.2991,3.2988,3.2984,3.3003,3.3021,3.3079,3.2965,3.2971,3.2954,3.2949,3.2995,3.2999,3.3015,3.3118,3.3119,3.3011,3.3014,3.3016,3.3018,0,0,0,0,0,0,0,3.2929,3.2938,3.3041,3.2992,3.2988,3.2963,3.2965,3.3031,3.3007,3.297,3.2963,3.2968,3.2992,3.301,3.3015,3.3119,3.3011,3.3015,3.3019,3.3021,3.3322,3.3327,0,0,0,0,0,0,3.2931,3.2936,3.304,3.3042,3.2947,3.2969,3.2972,3.3001,3.3006,3.3003,3.2972,3.2963,3.3003,3.3009,3.3016,3.3157,3.3016,3.3021,3.3025,3.3317,3.3323,3.3328,0,0,0,0,0,0,3.2928,3.2941,3.3039,3.2987,3.2998,3.2977,3.3011,3.3004,3.3021,3.3008,3.3003,3.2994,3.3,3.3008,3.3091,3.3157,3.3024,3.3029,3.3312,3.3319,3.3326,3.3442,0,0,0,0,0,0,3.2925,3.2941,3.2987,3.2989,3.3001,3.3115,3.3015,3.3008,3.3031,3.302,3.3027,3.3024,3.2997,3.3084,3.3097,3.3162,3.3033,3.3306,3.3315,3.3323,3.3433,3.3453,3.347,0,0,0,0,0,3.292,3.3019,3.299,3.3003,3.3058,3.3119,3.3125,3.3092,3.3037,3.3083,3.3074,3.3024,3.3148,3.3093,3.3107,3.3175,3.3301,3.3312,3.3323,3.3424,3.3449,3.3469,0,0,0,0,0,0,3.3026,3.3019,3.2986,3.3089,3.3105,3.3102,3.3159,3.3119,3.3151,3.3139,3.3096,3.3099,3.3189,3.3191,3.3129,3.3292,3.3215,3.3229,3.3288,3.3311,3.3329,3.3326,3.3037,0,0,0,0,0,3.3062,3.3111,3.3102,3.3194,3.3204,3.3181,3.3205,3.3178,3.3193,3.3199,3.3196,3.3212,3.3254,3.3283,3.3322,3.3433,3.3432,3.3487,3.3505,3.3521,3.3532,3.3589,3.3613,3.3363,3.3363,3.3363,0,0,3.3135,3.3137,3.3171,3.3215,3.3224,3.3276,3.3187,3.3246,3.3283,3.3208,3.3285,3.3285,3.3299,3.3397,3.344,3.3401,3.3601,3.3534,3.3547,3.355,3.3603,3.3626,3.3647,3.3371,3.3369,3.3368,0,0,3.3295,3.3303,3.3379,3.339,3.3405,3.3389,3.3407,3.341,3.3406,3.3484,3.3428,3.3472,3.3547,3.3559,3.3575,3.374,3.3694,3.3754,3.385,3.3906,3.3926,3.3943,3.3999,3.402,3.3766,3.3766,3.3767,0,3.3384,3.346,3.3423,3.3485,3.3506,3.344,3.3516,3.3529,3.3556,3.3571,3.3528,3.3619,3.3624,3.3723,3.3763,3.3779,3.3798,3.3751,3.3926,3.3943,3.3958,3.4011,3.4033,3.3773,3.3773,3.3772,3.3771,0,3.3568,3.3621,3.3681,3.3708,3.3736,3.3805,3.3778,3.381,3.3781,3.3769,3.3849,3.3853,3.3891,3.3913,3.3885,3.4007,3.3982,3.3933,3.3854,3.399,3.4039,3.4059,3.3783,3.3781,3.3779,3.3777,0,0,3.3793,3.3799,3.3822,3.3832,3.3844,3.3885,3.3951,3.3987,3.4015,3.4036,3.4089,3.4154,3.4108,3.4127,3.41,3.415,3.4277,3.4094,3.4094,3.4126,3.4409,3.4444,3.4468,3.4248,3.4252,3.4255,3.4407,0,3.3948,3.4061,3.403,3.4142,3.419,3.4129,3.4186,3.42,3.4191,3.423,3.422,3.4266,3.4204,3.4214,3.4261,3.4252,3.4333,3.424,3.4295,3.4297,3.429,3.4494,3.4531,3.4675,3.4426,3.4429,3.4432,0,3.4144,3.4172,3.4289,3.4292,3.4311,3.4363,3.4393,3.4432,3.4445,3.4435,3.4456,3.4419,3.4483,3.4406,3.4493,3.4431,3.4452,3.4451,3.4456,3.4457,3.4371,3.4499,3.472,3.474,3.4462,3.446,3.4458,0,3.4293,3.4361,3.4439,3.4451,3.4457,3.4494,3.4499,3.4508,3.4531,3.4558,3.4573,3.4607,3.4625,3.4652,3.4625,3.4572,3.4716,3.4637,3.4707,3.4708,3.4738,3.4736,3.4963,3.4757,3.4756,3.4756,3.4756,0,3.4468,3.4541,3.4506,3.4554,3.4634,3.4598,3.4678,3.4675,3.4684,3.473,3.468,3.4724,3.4687,3.4728,3.4707,3.4781,3.479,3.4783,3.4776,3.4786,3.4786,3.4797,3.4785,3.4762,3.476,3.4759,3.4758,0,3.4647,3.4627,3.4707,3.4707,3.4708,3.4767,3.4766,3.481,3.4798,3.4856,3.4868,3.4849,3.4894,3.4871,3.4917,3.4903,3.4998,3.4979,3.4993,3.4987,3.5058,3.5051,3.5298,3.5327,3.5105,3.5107,3.5109,0,3.4758,3.4813,3.4818,3.4845,3.4853,3.4898,3.4921,3.4888,3.4915,3.4934,3.4976,3.5017,3.5047,3.5122,3.5112,3.5147,3.5127,3.5211,3.5131,3.5139,3.5125,3.5121,3.5125,3.5226,3.5228,3.5231,3.5232,0,3.4957,3.4944,3.498,3.5014,3.5043,3.5068,3.5087,3.5113,3.508,3.5112,3.5158,3.5181,3.5229,3.5269,3.53,3.5303,3.5262,3.5258,3.5275,3.5284,3.5289,3.5285,3.5034,3.5252,3.525,3.5248,3.5247,3.5246,3.5104,3.5149,3.516,3.5201,3.5213,3.5233,3.5273,3.5267,3.5304,3.534,3.5319,3.5371,3.5383,3.5419,3.5428,3.5468,3.5435,3.5461,3.5467,3.5474,3.5482,3.5286,3.5474,3.5474,3.5473,3.5473,3.5472,0,3.5298,3.5302,3.5341,3.537,3.5403,3.5363,3.5383,3.5412,3.5459,3.5474,3.5505,3.5556,3.5595,3.5589,3.5624,3.5657,3.5639,3.5668,3.5663,3.5664,3.5511,3.5491,3.5681,3.5681,3.5681,3.5681,3.5681,3.5681,3.5402,3.5476,3.5465,3.5544,3.5547,3.5598,3.5613,3.563,3.5641,3.5701,3.5733,3.5729,3.5735,3.577,3.5804,3.5801,3.5815,3.585,3.584,3.5696,3.5675,3.5656,3.5636,3.5854,3.5854,3.5988,3.599,3.5991]},{"header":{"parameterUnit":"m.s-1","parameterCategory":1,"la1":30.2991,"la2":30.254,"lo1":-89.0895,"lo2":-89.0444,"dy":0.0017,"dx":0.0017,"nx":28,"ny":28,"refTime":"2025-07-06T21:00:00:Z","depth":0,"parameterNumber":3,"parameterNumberName":"V-component_of_WINDS"},"data":[0,0,0,0,0,0,0,0,0,0,0,0,0,0,0,0,0,0,0,0,0,0,0,0,0,0,0,0,0,0,0,0,0,0,0,0,0,0,0,0,0,0,0,0,0,0,0,0,0,0,0,0,0,0,0,0,0,0,3.7141,3.7144,0,3.7369,3.7371,3.7374,3.7401,3.7399,3.7397,3.7395,3.7622,3.763,3.7638,0,0,0,0,0,0,0,0,0,0,0,0,0,3.6724,3.6732,3.7141,3.7144,3.7147,3.7368,3.7371,3.7374,3.7401,3.7399,3.7396,3.7394,3.7619,3.7629,3.7639,0,0,0,0,0,0,0,0,0,0,0,0,0,3.6924,3.6734,3.7141,3.7187,3.7194,3.7367,3.7371,3.7375,3.7402,3.7399,3.7395,3.7392,3.7616,3.7628,3.764,3.7781,0,0,3.7677,3.7682,0,0,0,0,0,0,0,0,3.6912,3.6939,3.7177,3.7184,3.7192,3.7353,3.7308,3.7511,3.7403,3.7323,3.7394,3.7391,3.7535,3.7553,3.7603,3.7792,3.7802,3.7678,3.7686,3.7691,3.7694,0,0,0,0,0,0,0,3.6899,3.6929,3.7231,3.7181,3.719,3.7195,3.7219,3.7346,3.7444,3.7329,3.7332,3.7359,3.7538,3.7591,3.7609,3.7805,3.7678,3.7689,3.7696,3.7701,3.8119,3.8123,0,0,0,0,0,0,3.6877,3.6918,3.7224,3.7238,3.7041,3.7205,3.7232,3.7305,3.7443,3.7461,3.7361,3.7359,3.7572,3.7595,3.7617,3.7791,3.7691,3.7702,3.7709,3.8116,3.812,3.8124,0,0,0,0,0,0,3.6868,3.6904,3.7214,3.7079,3.7118,3.7216,3.7296,3.7311,3.7364,3.7467,3.7484,3.7398,3.7571,3.76,3.774,3.7799,3.7708,3.7719,3.8111,3.8117,3.8122,3.8141,0,0,0,0,0,0,3.6856,3.6901,3.6957,3.708,3.7126,3.7336,3.73,3.7318,3.7386,3.7385,3.7507,3.7523,3.757,3.7722,3.7752,3.7814,3.7728,3.8106,3.8114,3.812,3.8135,3.8146,3.8156,0,0,0,0,0,3.6841,3.6952,3.696,3.6997,3.7199,3.734,3.7366,3.7419,3.7391,3.7447,3.7513,3.752,3.7788,3.7736,3.7771,3.7837,3.8103,3.8112,3.812,3.8131,3.8144,3.8156,0,0,0,0,0,0,3.6833,3.6969,3.6979,3.7134,3.7225,3.7344,3.7417,3.7432,3.7532,3.7527,3.7586,3.7613,3.7751,3.7808,3.7748,3.798,3.7942,3.7958,3.7939,3.7952,3.7962,3.7946,3.7738,0,0,0,0,0,3.6849,3.6954,3.7067,3.7193,3.7238,3.732,3.7383,3.7416,3.7512,3.755,3.7627,3.7718,3.7823,3.789,3.7993,3.8143,3.8169,3.8205,3.8216,3.8224,3.8237,3.8319,3.8336,3.8153,3.8152,3.8152,0,0,3.6884,3.6971,3.7034,3.7193,3.7268,3.7373,3.7352,3.7465,3.7543,3.7567,3.7705,3.7764,3.7869,3.8015,3.8083,3.8067,3.8293,3.8235,3.824,3.8249,3.833,3.8347,3.8362,3.8158,3.8157,3.8156,0,0,3.7002,3.7079,3.7192,3.7267,3.738,3.7434,3.746,3.7577,3.7618,3.7757,3.7777,3.7869,3.8049,3.8123,3.8184,3.8327,3.8337,3.8359,3.8413,3.8492,3.8506,3.852,3.857,3.8587,3.8371,3.8371,3.8371,0,3.703,3.7192,3.7247,3.736,3.7429,3.7456,3.7569,3.7639,3.7779,3.7825,3.7805,3.803,3.8103,3.8266,3.8301,3.8349,3.838,3.8346,3.85,3.8514,3.8527,3.8575,3.8594,3.8373,3.8373,3.8373,3.8373,0,3.7221,3.7333,3.741,3.7546,3.7623,3.7735,3.7806,3.7877,3.7902,3.7956,3.8096,3.8185,3.8305,3.8346,3.8371,3.8512,3.8498,3.8488,3.8451,3.8545,3.8592,3.8611,3.8376,3.8375,3.8375,3.8374,0,0,3.7342,3.7506,3.7534,3.7595,3.7721,3.7808,3.792,3.8039,3.8098,3.8193,3.8287,3.8437,3.8429,3.8498,3.8532,3.8601,3.8708,3.8583,3.8586,3.8603,3.8867,3.8873,3.8894,3.8714,3.8718,3.8721,3.8858,0,3.7473,3.7677,3.7729,3.7901,3.8004,3.803,3.8127,3.8214,3.8267,3.836,3.8418,3.8524,3.8505,3.8547,3.8617,3.868,3.8762,3.8671,3.8801,3.8805,3.8774,3.8919,3.8927,3.9052,3.8876,3.8879,3.8882,0,3.7655,3.7756,3.7938,3.805,3.8095,3.8182,3.8294,3.8384,3.8481,3.8515,3.8591,3.8618,3.8733,3.8689,3.8847,3.8785,3.884,3.8879,3.8885,3.89,3.8849,3.8937,3.9093,3.9111,3.8911,3.8909,3.8907,0,3.7724,3.7905,3.8037,3.8089,3.8223,3.8283,3.8341,3.8436,3.8503,3.86,3.8644,3.8752,3.8811,3.8893,3.8947,3.8911,3.9101,3.9062,3.913,3.9129,3.917,3.9167,3.9337,3.9205,3.9205,3.9205,3.9204,0,3.7867,3.7978,3.807,3.8152,3.8276,3.8333,3.8453,3.8511,3.8595,3.8686,3.8714,3.8799,3.8865,3.8958,3.9,3.9124,3.9151,3.9179,3.919,3.9178,3.9174,3.9215,3.9208,3.921,3.9209,3.9208,3.9207,0,3.7966,3.8033,3.8179,3.8293,3.8324,3.841,3.8507,3.8586,3.8639,3.8754,3.8784,3.8867,3.8978,3.904,3.9178,3.9207,3.9345,3.935,3.9312,3.9317,3.9382,3.9375,3.9585,3.9615,3.9463,3.9464,3.9465,0,3.8053,3.8139,3.8262,3.8326,3.8386,3.8489,3.8558,3.8616,3.8686,3.8803,3.8867,3.898,3.9073,3.9248,3.9319,3.9425,3.9433,3.9499,3.9449,3.9433,3.9433,3.9428,3.9436,3.9508,3.9509,3.951,3.9511,0,3.8199,3.8228,3.8328,3.8439,3.8521,3.861,3.8699,3.8749,3.8822,3.8899,3.9013,3.9086,3.9227,3.9338,3.9449,3.9506,3.952,3.9526,3.9548,3.9537,3.9511,3.9525,3.9336,3.9522,3.952,3.952,3.9519,3.9519,3.8295,3.8372,3.8471,3.8581,3.8654,3.8735,3.8815,3.8878,3.8975,3.9097,3.9124,3.9244,3.9337,3.9487,3.9547,3.964,3.9628,3.9659,3.9667,3.9673,3.9676,3.9496,3.966,3.966,3.966,3.966,3.966,0,3.8443,3.8508,3.8608,3.8732,3.8817,3.8824,3.8922,3.8993,3.9099,3.9185,3.9276,3.9406,3.9513,3.9592,3.9701,3.976,3.9769,3.9786,3.9783,3.9795,3.9681,3.9651,3.9777,3.9777,3.9777,3.9777,3.9777,3.9777,3.853,3.8661,3.8701,3.8866,3.893,3.9049,3.9104,3.9179,3.9248,3.9393,3.9483,3.9534,3.9616,3.9731,3.9828,3.9848,3.9887,3.9903,3.9924,3.9816,3.9803,3.9791,3.9764,3.9911,3.9912,4.0031,4.0032,4.0033]}]]